BCS25Q DNMM-FZAA

Flight info

Callsign BCS25Q
Flight time 2h 25m
Altitude 35000
Route BOTBO1Q BOTBO UR984 MOMUR UQ181 BIPIV UG856 VOPAT DCT BELGU BELGU1A
Aircraft B77L/H-SDE1E2E3FGHIJ2J3J4J5M1RWXY/LB1D1

Departure

Time 2026-05-09 10:08
Airport Murtala Muhammed International Airport (DNMM)

Arrival

Time 2026-05-09 12:33
Airport Ndjili International Airport (FZAA)
Time Latitude Longitude Altitude Speed Heading
2026-05-09 09:52 6.56883 3.31777 81 ft 0 kts 90°
2026-05-09 10:02 6.56882 3.31781 81 ft 1 kts 102°
2026-05-09 10:02 6.56875 3.31789 86 ft 1 kts 137°
2026-05-09 10:02 6.56865 3.31791 87 ft 2 kts 174°
2026-05-09 10:03 6.56854 3.31786 84 ft 2 kts 213°
2026-05-09 10:03 6.56845 3.31757 85 ft 7 kts 271°
2026-05-09 10:03 6.56853 3.31683 81 ft 15 kts 276°
2026-05-09 10:03 6.56866 3.31588 84 ft 19 kts 288°
2026-05-09 10:04 6.56972 3.31541 83 ft 21 kts 360°
2026-05-09 10:04 6.57147 3.31537 76 ft 28 kts 359°
2026-05-09 10:04 6.57341 3.31534 74 ft 27 kts 358°
2026-05-09 10:04 6.57533 3.31530 69 ft 26 kts 359°
2026-05-09 10:05 6.57705 3.31528 73 ft 25 kts 359°
2026-05-09 10:05 6.57886 3.31528 75 ft 29 kts 360°
2026-05-09 10:05 6.58073 3.31527 73 ft 26 kts 359°
2026-05-09 10:05 6.58252 3.31524 84 ft 26 kts 359°
2026-05-09 10:06 6.58432 3.31521 86 ft 26 kts 359°
2026-05-09 10:06 6.58611 3.31519 85 ft 25 kts 360°
2026-05-09 10:06 6.58763 3.31513 83 ft 19 kts 342°
2026-05-09 10:06 6.58805 3.31403 81 ft 17 kts 255°
2026-05-09 10:07 6.58720 3.31324 85 ft 17 kts 202°
2026-05-09 10:07 6.58603 3.31317 84 ft 23 kts 179°
2026-05-09 10:07 6.58317 3.31320 86 ft 69 kts 179°
2026-05-09 10:07 6.57606 3.31329 74 ft 133 kts 179°
2026-05-09 10:08 6.56512 3.31338 127 ft 174 kts 178°
2026-05-09 10:08 6.55291 3.31400 599 ft 179 kts 176°
2026-05-09 10:08 6.54061 3.31496 1145 ft 179 kts 179°
2026-05-09 10:08 6.52831 3.31508 1774 ft 178 kts 181°
2026-05-09 10:09 6.51542 3.31478 2110 ft 195 kts 184°
2026-05-09 10:09 6.50128 3.31654 2302 ft 216 kts 165°
2026-05-09 10:09 6.48600 3.32113 2478 ft 245 kts 166°
2026-05-09 10:09 6.46878 3.32564 2975 ft 259 kts 167°
2026-05-09 10:10 6.45134 3.33003 3823 ft 261 kts 167°
2026-05-09 10:10 6.43352 3.33446 4592 ft 264 kts 166°
2026-05-09 10:10 6.41573 3.33887 5462 ft 264 kts 165°
2026-05-09 10:10 6.39807 3.34447 6017 ft 270 kts 149°
2026-05-09 10:11 6.38461 3.35746 6637 ft 271 kts 118°
2026-05-09 10:11 6.37850 3.37514 7393 ft 265 kts 99°
2026-05-09 10:11 6.37560 3.39352 8127 ft 266 kts 97°
2026-05-09 10:11 6.37290 3.41185 8975 ft 263 kts 96°
2026-05-09 10:12 6.37032 3.42972 9800 ft 261 kts 95°
2026-05-09 10:12 6.36771 3.44794 10428 ft 267 kts 96°
2026-05-09 10:12 6.36496 3.46721 10614 ft 291 kts 96°
2026-05-09 10:12 6.36195 3.48817 10793 ft 315 kts 96°
2026-05-09 10:13 6.35867 3.51074 10963 ft 338 kts 96°
2026-05-09 10:13 6.35516 3.53465 11371 ft 352 kts 97°
2026-05-09 10:13 6.35149 3.55940 11958 ft 361 kts 97°
2026-05-09 10:13 6.34773 3.58454 12734 ft 366 kts 97°
2026-05-09 10:14 6.34392 3.61003 13512 ft 371 kts 97°
2026-05-09 10:14 6.34005 3.63588 14197 ft 378 kts 97°
2026-05-09 10:14 6.33610 3.66220 14868 ft 384 kts 98°
2026-05-09 10:14 6.33216 3.68855 15524 ft 388 kts 98°
2026-05-09 10:15 6.32811 3.71562 16155 ft 393 kts 98°
2026-05-09 10:15 6.32402 3.74296 16771 ft 399 kts 98°
2026-05-09 10:15 6.31986 3.77074 17385 ft 404 kts 98°
2026-05-09 10:15 6.31565 3.79889 17978 ft 409 kts 98°
2026-05-09 10:16 6.31138 3.82735 18529 ft 414 kts 98°
2026-05-09 10:16 6.30708 3.85606 19076 ft 417 kts 98°
2026-05-09 10:16 6.30275 3.88493 19672 ft 419 kts 98°
2026-05-09 10:16 6.29840 3.91396 20234 ft 421 kts 98°
2026-05-09 10:17 6.29401 3.94317 20794 ft 424 kts 98°
2026-05-09 10:17 6.28959 3.97263 21326 ft 427 kts 98°
2026-05-09 10:17 6.28515 4.00224 21841 ft 430 kts 98°
2026-05-09 10:17 6.28066 4.03209 22351 ft 433 kts 98°
2026-05-09 10:18 6.27620 4.06177 22851 ft 436 kts 98°
2026-05-09 10:18 6.27166 4.09202 23371 ft 439 kts 98°
2026-05-09 10:18 6.26708 4.12248 23798 ft 442 kts 98°
2026-05-09 10:18 6.26246 4.15317 24183 ft 445 kts 98°
2026-05-09 10:19 6.25781 4.18407 24572 ft 448 kts 98°
2026-05-09 10:19 6.25315 4.21509 24968 ft 450 kts 98°
2026-05-09 10:19 6.24845 4.24626 25377 ft 452 kts 98°
2026-05-09 10:19 6.24372 4.27765 25748 ft 455 kts 98°
2026-05-09 10:20 6.23840 4.30910 26097 ft 459 kts 102°
2026-05-09 10:20 6.22753 4.33944 26407 ft 464 kts 114°
2026-05-09 10:20 6.21317 4.36860 26773 ft 467 kts 115°
2026-05-09 10:20 6.20336 4.38792 27006 ft 469 kts 115°
2026-05-09 10:21 6.18851 4.41723 27350 ft 472 kts 115°
2026-05-09 10:21 6.17379 4.44678 27689 ft 475 kts 114°
2026-05-09 10:21 6.15922 4.47663 28015 ft 477 kts 114°
2026-05-09 10:21 6.14470 4.50681 28339 ft 480 kts 114°
2026-05-09 10:22 6.13023 4.53713 28658 ft 483 kts 114°
2026-05-09 10:22 6.11572 4.56766 28950 ft 485 kts 113°
2026-05-09 10:22 6.10116 4.59830 29388 ft 484 kts 114°
2026-05-09 10:22 6.08670 4.62870 29911 ft 481 kts 114°
2026-05-09 10:23 6.07225 4.65903 30346 ft 481 kts 114°
2026-05-09 10:23 6.05794 4.68905 30640 ft 483 kts 113°
2026-05-09 10:23 6.04342 4.71953 30928 ft 484 kts 114°
2026-05-09 10:23 6.02886 4.75006 31280 ft 484 kts 114°
2026-05-09 10:24 6.01433 4.78052 31680 ft 483 kts 114°
2026-05-09 10:24 5.99981 4.81096 32080 ft 482 kts 114°
2026-05-09 10:24 5.98531 4.84135 32443 ft 482 kts 114°
2026-05-09 10:24 5.97081 4.87175 32800 ft 482 kts 114°
2026-05-09 10:25 5.95631 4.90214 33191 ft 482 kts 114°
2026-05-09 10:25 5.94181 4.93251 33563 ft 482 kts 114°
2026-05-09 10:25 5.92730 4.96290 33938 ft 481 kts 114°
2026-05-09 10:25 5.91101 4.99222 34251 ft 483 kts 122°
2026-05-09 10:26 5.89010 5.01884 34558 ft 485 kts 130°
2026-05-09 10:26 5.86600 5.04264 34832 ft 488 kts 137°
2026-05-09 10:26 5.83900 5.06301 34924 ft 493 kts 143°
2026-05-09 10:27 5.78196 5.10164 34953 ft 492 kts 144°
2026-05-09 10:27 5.72537 5.13987 34950 ft 488 kts 143°
2026-05-09 10:28 5.66944 5.17833 34956 ft 486 kts 143°
2026-05-09 10:28 5.61411 5.21668 34955 ft 486 kts 143°
2026-05-09 10:29 5.55842 5.25531 34957 ft 487 kts 143°
2026-05-09 10:29 5.50260 5.29398 34954 ft 488 kts 143°
2026-05-09 10:30 5.44666 5.33271 34955 ft 489 kts 143°
2026-05-09 10:30 5.39059 5.37151 34951 ft 489 kts 143°
2026-05-09 10:31 5.33451 5.41031 34949 ft 490 kts 143°
2026-05-09 10:31 5.27833 5.44918 34953 ft 490 kts 143°
2026-05-09 10:32 5.22219 5.48801 34949 ft 489 kts 143°
2026-05-09 10:32 5.16612 5.52678 34943 ft 488 kts 143°
2026-05-09 10:33 5.11016 5.56548 34956 ft 488 kts 143°
2026-05-09 10:33 5.05462 5.60388 34950 ft 487 kts 143°
2026-05-09 10:34 4.99741 5.64037 34952 ft 488 kts 147°
2026-05-09 10:34 4.90976 5.69236 34951 ft 488 kts 147°
2026-05-09 10:35 4.85146 5.72710 34956 ft 487 kts 146°
2026-05-09 10:35 4.79327 5.76200 34955 ft 488 kts 146°
2026-05-09 10:36 4.73511 5.79692 34946 ft 488 kts 146°
2026-05-09 10:36 4.67681 5.83190 34953 ft 488 kts 146°
2026-05-09 10:37 4.61890 5.86663 34953 ft 488 kts 146°
2026-05-09 10:37 4.56064 5.90156 34952 ft 488 kts 146°
2026-05-09 10:38 4.50234 5.93651 34954 ft 488 kts 146°
2026-05-09 10:38 4.44393 5.97153 34948 ft 489 kts 146°
2026-05-09 10:39 4.38572 6.00642 34955 ft 489 kts 146°
2026-05-09 10:39 4.32721 6.04149 34952 ft 489 kts 146°
2026-05-09 10:40 4.26935 6.07666 34956 ft 489 kts 144°
2026-05-09 10:40 4.21233 6.11365 34957 ft 488 kts 143°
2026-05-09 10:41 4.15547 6.15092 34956 ft 488 kts 143°
2026-05-09 10:41 4.09849 6.18795 34953 ft 488 kts 144°
2026-05-09 10:42 4.04143 6.22483 34954 ft 487 kts 144°
2026-05-09 10:42 3.98443 6.26164 34952 ft 487 kts 144°
2026-05-09 10:43 3.92778 6.29822 34953 ft 487 kts 144°
2026-05-09 10:43 3.87077 6.33504 34951 ft 487 kts 144°
2026-05-09 10:44 3.81384 6.37182 34955 ft 488 kts 144°
2026-05-09 10:44 3.75674 6.40869 34950 ft 487 kts 144°
2026-05-09 10:46 3.61496 6.50022 34951 ft 485 kts 143°
2026-05-09 10:46 3.55832 6.53678 34959 ft 485 kts 143°
2026-05-09 10:47 3.50159 6.57341 34948 ft 485 kts 143°
2026-05-09 10:47 3.44498 6.60990 34966 ft 485 kts 144°
2026-05-09 10:48 3.38840 6.64629 34958 ft 484 kts 144°
2026-05-09 10:48 3.33179 6.68271 34949 ft 483 kts 144°
2026-05-09 10:49 3.27527 6.71910 34951 ft 483 kts 144°
2026-05-09 10:49 3.21879 6.75545 34951 ft 483 kts 144°
2026-05-09 10:50 3.16450 6.79395 34954 ft 479 kts 136°
2026-05-09 10:50 3.11674 6.84017 34959 ft 478 kts 131°
2026-05-09 10:51 3.06955 6.88721 34950 ft 479 kts 132°
2026-05-09 10:51 3.02212 6.93408 34955 ft 479 kts 132°
2026-05-09 10:52 2.97461 6.98075 34952 ft 479 kts 132°
2026-05-09 10:52 2.92731 7.02716 34952 ft 478 kts 132°
2026-05-09 10:53 2.87982 7.07375 34949 ft 478 kts 132°
2026-05-09 10:53 2.83239 7.12031 34953 ft 477 kts 132°
2026-05-09 10:54 2.78489 7.16693 34953 ft 477 kts 132°
2026-05-09 10:54 2.73755 7.21339 34953 ft 477 kts 132°
2026-05-09 10:55 2.69015 7.25991 34953 ft 477 kts 132°
2026-05-09 10:55 2.64280 7.30636 34953 ft 477 kts 132°
2026-05-09 10:56 2.59544 7.35283 34950 ft 477 kts 132°
2026-05-09 10:56 2.54808 7.39930 34955 ft 477 kts 132°
2026-05-09 10:57 2.50058 7.44571 34953 ft 477 kts 132°
2026-05-09 10:57 2.45281 7.49185 34951 ft 478 kts 132°
2026-05-09 10:58 2.40500 7.53798 34951 ft 478 kts 132°
2026-05-09 10:58 2.35723 7.58415 34952 ft 478 kts 132°
2026-05-09 10:59 2.30970 7.63012 34950 ft 478 kts 132°
2026-05-09 10:59 2.26188 7.67639 34952 ft 478 kts 133°
2026-05-09 11:00 2.21394 7.72275 34954 ft 478 kts 133°
2026-05-09 11:00 2.16638 7.76874 34956 ft 478 kts 133°
2026-05-09 11:01 2.11821 7.81531 34953 ft 479 kts 133°
2026-05-09 11:01 2.07065 7.86130 34948 ft 479 kts 133°
2026-05-09 11:02 2.02269 7.90767 34950 ft 479 kts 133°
2026-05-09 11:02 1.97484 7.95393 34953 ft 479 kts 133°
2026-05-09 11:03 1.92699 8.00019 34950 ft 479 kts 133°
2026-05-09 11:03 1.87908 8.04652 34953 ft 479 kts 133°
2026-05-09 11:04 1.83120 8.09289 34950 ft 479 kts 133°
2026-05-09 11:04 1.78360 8.13900 34954 ft 479 kts 133°
2026-05-09 11:05 1.73572 8.18537 34954 ft 479 kts 133°
2026-05-09 11:05 1.68785 8.23173 34953 ft 479 kts 133°
2026-05-09 11:06 1.63992 8.27814 34953 ft 479 kts 133°
2026-05-09 11:06 1.59197 8.32456 34952 ft 479 kts 133°
2026-05-09 11:07 1.54406 8.37095 34946 ft 480 kts 133°
2026-05-09 11:07 1.49609 8.41739 34952 ft 480 kts 133°
2026-05-09 11:08 1.44798 8.46397 34956 ft 481 kts 133°
2026-05-09 11:08 1.40019 8.51023 34951 ft 482 kts 133°
2026-05-09 11:09 1.35199 8.55689 34951 ft 483 kts 133°
2026-05-09 11:09 1.31189 8.59570 34954 ft 483 kts 133°
2026-05-09 11:10 1.26359 8.64246 34953 ft 483 kts 133°
2026-05-09 11:10 1.21525 8.68925 34950 ft 483 kts 133°
2026-05-09 11:11 1.16692 8.73604 34950 ft 483 kts 133°
2026-05-09 11:11 1.11866 8.78281 34950 ft 483 kts 133°
2026-05-09 11:12 1.07051 8.82951 34950 ft 483 kts 133°
2026-05-09 11:12 1.02263 8.87594 34951 ft 483 kts 133°
2026-05-09 11:13 0.97441 8.92269 34950 ft 482 kts 133°
2026-05-09 11:13 0.92619 8.96943 34952 ft 482 kts 133°
2026-05-09 11:14 0.87801 9.01615 34950 ft 482 kts 133°
2026-05-09 11:14 0.82981 9.06288 34949 ft 482 kts 133°
2026-05-09 11:15 0.78167 9.10954 34941 ft 482 kts 133°
2026-05-09 11:15 0.73352 9.15622 34945 ft 482 kts 133°
2026-05-09 11:16 0.68538 9.20288 34946 ft 482 kts 133°
2026-05-09 11:16 0.63725 9.24954 34945 ft 482 kts 133°
2026-05-09 11:17 0.58953 9.29580 34942 ft 483 kts 133°
2026-05-09 11:17 0.54136 9.34250 34944 ft 483 kts 133°
2026-05-09 11:18 0.49314 9.38925 34939 ft 483 kts 133°
2026-05-09 11:18 0.45040 9.43723 34949 ft 480 kts 126°
2026-05-09 11:19 0.40874 9.48940 34936 ft 480 kts 126°
2026-05-09 11:19 0.36726 9.54125 34941 ft 481 kts 126°
2026-05-09 11:20 0.32523 9.59338 34941 ft 482 kts 126°
2026-05-09 11:20 0.28327 9.64526 34940 ft 482 kts 127°
2026-05-09 11:21 0.24105 9.69744 34940 ft 483 kts 127°
2026-05-09 11:21 0.19873 9.74976 34943 ft 483 kts 127°
2026-05-09 11:22 0.15683 9.80159 34937 ft 484 kts 127°
2026-05-09 11:22 0.11451 9.85392 34939 ft 483 kts 127°
2026-05-09 11:23 0.07220 9.90625 34939 ft 483 kts 127°
2026-05-09 11:23 0.02999 9.95844 34942 ft 483 kts 127°
2026-05-09 11:24 -0.01226 10.01068 34936 ft 483 kts 127°
2026-05-09 11:24 -0.05455 10.06299 34939 ft 483 kts 127°
2026-05-09 11:25 -0.09684 10.11529 34940 ft 484 kts 127°
2026-05-09 11:25 -0.13913 10.16760 34942 ft 484 kts 127°
2026-05-09 11:26 -0.18109 10.21950 34941 ft 485 kts 127°
2026-05-09 11:26 -0.22323 10.27163 34942 ft 485 kts 127°
2026-05-09 11:27 -0.26564 10.32408 34939 ft 486 kts 127°
2026-05-09 11:27 -0.30797 10.37643 34943 ft 486 kts 127°
2026-05-09 11:28 -0.35043 10.42894 34940 ft 486 kts 127°
2026-05-09 11:28 -0.39292 10.48149 34939 ft 486 kts 127°
2026-05-09 11:29 -0.43533 10.53397 34940 ft 485 kts 127°
2026-05-09 11:29 -0.47781 10.58654 34942 ft 485 kts 127°
2026-05-09 11:30 -0.52020 10.63898 34946 ft 485 kts 127°
2026-05-09 11:30 -0.56225 10.69102 34944 ft 485 kts 127°
2026-05-09 11:31 -0.60443 10.74322 34950 ft 485 kts 127°
2026-05-09 11:31 -0.64674 10.79559 34949 ft 486 kts 127°
2026-05-09 11:32 -0.68921 10.84816 34946 ft 486 kts 127°
2026-05-09 11:32 -0.73142 10.90039 34951 ft 486 kts 127°
2026-05-09 11:33 -0.77395 10.95299 34950 ft 486 kts 127°
2026-05-09 11:33 -0.83776 11.03193 34959 ft 487 kts 127°
2026-05-09 11:34 -0.88029 11.08457 34946 ft 487 kts 127°
2026-05-09 11:34 -0.92285 11.13723 34954 ft 486 kts 127°
2026-05-09 11:35 -0.96533 11.18982 34952 ft 486 kts 127°
2026-05-09 11:35 -1.00757 11.24210 34956 ft 486 kts 127°
2026-05-09 11:36 -1.05007 11.29471 34951 ft 486 kts 127°
2026-05-09 11:36 -1.09258 11.34734 34951 ft 486 kts 127°
2026-05-09 11:37 -1.13508 11.39997 34953 ft 487 kts 127°
2026-05-09 11:37 -1.17760 11.45260 34956 ft 487 kts 127°
2026-05-09 11:38 -1.22024 11.50540 34955 ft 489 kts 127°
2026-05-09 11:38 -1.26298 11.55832 34950 ft 489 kts 127°
2026-05-09 11:39 -1.30567 11.61118 34953 ft 488 kts 127°
2026-05-09 11:40 -1.36962 11.69040 34959 ft 488 kts 127°
2026-05-09 11:40 -1.41082 11.74142 34955 ft 487 kts 127°
2026-05-09 11:41 -1.45341 11.79403 34955 ft 487 kts 127°
2026-05-09 11:41 -1.49600 11.84662 34955 ft 486 kts 127°
2026-05-09 11:42 -1.53864 11.89931 34962 ft 488 kts 127°
2026-05-09 11:42 -1.58133 11.95207 34950 ft 488 kts 127°
2026-05-09 11:43 -1.62395 12.00477 34948 ft 487 kts 127°
2026-05-09 11:43 -1.66657 12.05747 34947 ft 487 kts 127°
2026-05-09 11:44 -1.70922 12.11018 34954 ft 487 kts 127°
2026-05-09 11:44 -1.75154 12.16255 34962 ft 487 kts 127°
2026-05-09 11:45 -1.79424 12.21543 34957 ft 488 kts 127°
2026-05-09 11:45 -1.83686 12.26823 34958 ft 488 kts 127°
2026-05-09 11:46 -1.87958 12.32117 34950 ft 489 kts 127°
2026-05-09 11:46 -1.92227 12.37407 34959 ft 489 kts 127°
2026-05-09 11:47 -1.96474 12.42669 34949 ft 489 kts 127°
2026-05-09 11:47 -2.00754 12.47972 34957 ft 489 kts 127°
2026-05-09 11:48 -2.05023 12.53263 34951 ft 489 kts 127°
2026-05-09 11:48 -2.09289 12.58550 34950 ft 489 kts 127°
2026-05-09 11:49 -2.13539 12.63818 34947 ft 489 kts 127°
2026-05-09 11:49 -2.17805 12.69107 34946 ft 488 kts 127°
2026-05-09 11:50 -2.22075 12.74401 34952 ft 488 kts 127°
2026-05-09 11:50 -2.26347 12.79699 34945 ft 489 kts 127°
2026-05-09 11:51 -2.30618 12.84995 34956 ft 489 kts 127°
2026-05-09 11:51 -2.34867 12.90264 34941 ft 489 kts 127°
2026-05-09 11:52 -2.39114 12.95534 34946 ft 489 kts 127°
2026-05-09 11:52 -2.43389 13.00838 34959 ft 490 kts 127°
2026-05-09 11:53 -2.48024 13.05842 34933 ft 492 kts 137°
2026-05-09 11:53 -2.53434 13.10051 34950 ft 492 kts 142°
2026-05-09 11:54 -2.58933 13.14127 34950 ft 492 kts 142°
2026-05-09 11:54 -2.64409 13.18218 34951 ft 492 kts 142°
2026-05-09 11:55 -2.69874 13.22337 34947 ft 492 kts 142°
2026-05-09 11:56 -2.86224 13.34693 34943 ft 491 kts 142°
2026-05-09 11:57 -2.91674 13.38812 34951 ft 491 kts 142°
2026-05-09 11:57 -2.97124 13.42930 34947 ft 491 kts 142°
2026-05-09 11:58 -3.02583 13.47056 34944 ft 491 kts 142°
2026-05-09 11:58 -3.07112 13.50480 34954 ft 491 kts 142°
2026-05-09 11:59 -3.13255 13.55122 34944 ft 492 kts 142°
2026-05-09 11:59 -3.18842 13.59347 34956 ft 492 kts 142°
2026-05-09 12:00 -3.23391 13.62787 34952 ft 492 kts 142°
2026-05-09 12:00 -3.28852 13.66917 34948 ft 493 kts 142°
2026-05-09 12:01 -3.34319 13.71052 34951 ft 492 kts 142°
2026-05-09 12:01 -3.39788 13.75189 34959 ft 492 kts 142°
2026-05-09 12:02 -3.45209 13.79290 34950 ft 491 kts 142°
2026-05-09 12:02 -3.50659 13.83414 34955 ft 491 kts 142°
2026-05-09 12:03 -3.56101 13.87533 34949 ft 491 kts 142°
2026-05-09 12:03 -3.61550 13.91658 34954 ft 490 kts 142°
2026-05-09 12:04 -3.66999 13.95782 34947 ft 490 kts 142°
2026-05-09 12:04 -3.72450 13.99910 34955 ft 490 kts 142°
2026-05-09 12:05 -3.77856 14.04004 34957 ft 491 kts 142°
2026-05-09 12:05 -3.83299 14.08127 34959 ft 491 kts 142°
2026-05-09 12:06 -3.88749 14.12255 34958 ft 491 kts 142°
2026-05-09 12:06 -3.94191 14.16379 34583 ft 492 kts 142°
2026-05-09 12:06 -3.96913 14.18441 34116 ft 489 kts 142°
2026-05-09 12:07 -3.99614 14.20487 33583 ft 485 kts 142°
2026-05-09 12:07 -4.02294 14.22518 33052 ft 481 kts 142°
2026-05-09 12:07 -4.04947 14.24529 32532 ft 477 kts 142°
2026-05-09 12:07 -4.07591 14.26533 32023 ft 473 kts 142°
2026-05-09 12:08 -4.10209 14.28518 31525 ft 470 kts 142°
2026-05-09 12:08 -4.12805 14.30486 31030 ft 466 kts 142°
2026-05-09 12:08 -4.15380 14.32439 30545 ft 463 kts 143°
2026-05-09 12:08 -4.17938 14.34378 30057 ft 460 kts 143°
2026-05-09 12:09 -4.20482 14.36307 29529 ft 457 kts 143°
2026-05-09 12:09 -4.23009 14.38224 28994 ft 453 kts 143°
2026-05-09 12:09 -4.25506 14.40118 28488 ft 449 kts 143°
2026-05-09 12:10 -4.32869 14.45703 27058 ft 439 kts 142°
2026-05-09 12:10 -4.35301 14.47548 26573 ft 436 kts 142°
2026-05-09 12:10 -4.37707 14.49374 26106 ft 433 kts 142°
2026-05-09 12:11 -4.40105 14.51193 25640 ft 430 kts 142°
2026-05-09 12:11 -4.42483 14.52998 25160 ft 428 kts 142°
2026-05-09 12:11 -4.44861 14.54803 24703 ft 426 kts 142°
2026-05-09 12:11 -4.47214 14.56589 24234 ft 424 kts 142°
2026-05-09 12:12 -4.49560 14.58370 23787 ft 422 kts 142°
2026-05-09 12:12 -4.51900 14.60146 23277 ft 421 kts 142°
2026-05-09 12:12 -4.54225 14.61911 22798 ft 418 kts 142°
2026-05-09 12:12 -4.56534 14.63664 22312 ft 415 kts 142°
2026-05-09 12:13 -4.58827 14.65406 21868 ft 411 kts 142°
2026-05-09 12:13 -4.61102 14.67134 21374 ft 410 kts 142°
2026-05-09 12:13 -4.63347 14.68840 20788 ft 411 kts 142°
2026-05-09 12:13 -4.65624 14.70570 20330 ft 408 kts 142°
2026-05-09 12:14 -4.67883 14.72287 19889 ft 405 kts 142°
2026-05-09 12:14 -4.70122 14.73988 19462 ft 403 kts 142°
2026-05-09 12:14 -4.72348 14.75679 19037 ft 400 kts 141°
2026-05-09 12:14 -4.74522 14.77395 18588 ft 392 kts 135°
2026-05-09 12:15 -4.76124 14.79568 18154 ft 387 kts 114°
2026-05-09 12:15 -4.76871 14.82133 17693 ft 383 kts 96°
2026-05-09 12:15 -4.76806 14.84778 17243 ft 380 kts 79°
2026-05-09 12:15 -4.75990 14.87283 16810 ft 378 kts 64°
2026-05-09 12:16 -4.74582 14.89497 16375 ft 376 kts 49°
2026-05-09 12:16 -4.72613 14.91191 15941 ft 371 kts 36°
2026-05-09 12:16 -4.70497 14.92658 15534 ft 369 kts 35°
2026-05-09 12:16 -4.68384 14.94115 15112 ft 368 kts 35°
2026-05-09 12:17 -4.66276 14.95573 14698 ft 368 kts 36°
2026-05-09 12:17 -4.64174 14.97039 14256 ft 368 kts 36°
2026-05-09 12:17 -4.62077 14.98511 13843 ft 367 kts 36°
2026-05-09 12:17 -4.60018 14.99964 13387 ft 367 kts 36°
2026-05-09 12:18 -4.57934 15.01439 12945 ft 366 kts 36°
2026-05-09 12:18 -4.55860 15.02910 12524 ft 364 kts 36°
2026-05-09 12:18 -4.53797 15.04374 12105 ft 363 kts 36°
2026-05-09 12:18 -4.51739 15.05836 11689 ft 361 kts 36°
2026-05-09 12:19 -4.49691 15.07291 11267 ft 360 kts 36°
2026-05-09 12:19 -4.47650 15.08740 10855 ft 359 kts 36°
2026-05-09 12:19 -4.45620 15.10182 10571 ft 354 kts 36°
2026-05-09 12:19 -4.43633 15.11593 10416 ft 346 kts 36°
2026-05-09 12:20 -4.41691 15.12971 10253 ft 338 kts 36°
2026-05-09 12:20 -4.39787 15.14323 10110 ft 330 kts 36°
2026-05-09 12:20 -4.37997 15.15594 9869 ft 309 kts 36°
2026-05-09 12:20 -4.36293 15.16803 9691 ft 295 kts 36°
2026-05-09 12:21 -4.34615 15.17995 9263 ft 293 kts 36°
2026-05-09 12:21 -4.32958 15.19172 8889 ft 290 kts 36°
2026-05-09 12:21 -4.31323 15.20333 8551 ft 285 kts 36°
2026-05-09 12:21 -4.29743 15.21454 8217 ft 275 kts 36°
2026-05-09 12:22 -4.28187 15.22558 7989 ft 273 kts 36°
2026-05-09 12:22 -4.26638 15.23669 7722 ft 270 kts 39°
2026-05-09 12:22 -4.25478 15.25121 7328 ft 270 kts 68°
2026-05-09 12:22 -4.25105 15.26953 7038 ft 270 kts 88°
2026-05-09 12:23 -4.25116 15.28834 6779 ft 269 kts 90°
2026-05-09 12:23 -4.25127 15.30705 6507 ft 266 kts 90°
2026-05-09 12:23 -4.25132 15.32542 6124 ft 262 kts 90°
2026-05-09 12:23 -4.25138 15.34368 5745 ft 262 kts 90°
2026-05-09 12:24 -4.25141 15.36180 5396 ft 265 kts 90°
2026-05-09 12:24 -4.25142 15.38034 5061 ft 264 kts 90°
2026-05-09 12:24 -4.25142 15.39872 4671 ft 265 kts 90°
2026-05-09 12:24 -4.25142 15.41698 4470 ft 259 kts 90°
2026-05-09 12:25 -4.25142 15.43508 4356 ft 262 kts 90°
2026-05-09 12:25 -4.25142 15.45306 4232 ft 250 kts 90°
2026-05-09 12:25 -4.25141 15.46989 4136 ft 236 kts 90°
2026-05-09 12:25 -4.25140 15.48601 4047 ft 229 kts 90°
2026-05-09 12:26 -4.25140 15.50176 3933 ft 223 kts 90°
2026-05-09 12:26 -4.25139 15.51727 3846 ft 221 kts 90°
2026-05-09 12:26 -4.25139 15.53233 3735 ft 211 kts 91°
2026-05-09 12:26 -4.25138 15.54683 3700 ft 209 kts 90°
2026-05-09 12:27 -4.25138 15.56121 3602 ft 207 kts 90°
2026-05-09 12:27 -4.25137 15.57548 3537 ft 204 kts 91°
2026-05-09 12:27 -4.25139 15.58955 3493 ft 200 kts 93°
2026-05-09 12:27 -4.25524 15.60274 3490 ft 200 kts 126°
2026-05-09 12:28 -4.26584 15.61134 3501 ft 199 kts 160°
2026-05-09 12:28 -4.27935 15.61299 3492 ft 198 kts 192°
2026-05-09 12:28 -4.29090 15.60608 3496 ft 197 kts 232°
2026-05-09 12:28 -4.29623 15.59363 3516 ft 195 kts 252°
2026-05-09 12:29 -4.30121 15.58095 3497 ft 195 kts 244°
2026-05-09 12:29 -4.30700 15.56909 3482 ft 185 kts 243°
2026-05-09 12:29 -4.31306 15.55804 3257 ft 175 kts 238°
2026-05-09 12:29 -4.31918 15.54820 3048 ft 157 kts 237°
2026-05-09 12:30 -4.32498 15.53910 2879 ft 156 kts 236°
2026-05-09 12:30 -4.33088 15.52990 2672 ft 156 kts 238°
2026-05-09 12:30 -4.34242 15.51184 2286 ft 154 kts 238°
2026-05-09 12:31 -4.34820 15.50281 2086 ft 157 kts 238°
2026-05-09 12:31 -4.35988 15.48462 1686 ft 155 kts 238°
2026-05-09 12:31 -4.36575 15.47549 1471 ft 156 kts 238°
2026-05-09 12:32 -4.37150 15.46628 1278 ft 156 kts 239°
2026-05-09 12:32 -4.37746 15.45714 1086 ft 157 kts 236°
2026-05-09 12:32 -4.38340 15.44798 1035 ft 157 kts 237°
2026-05-09 12:32 -4.38805 15.44078 1030 ft 76 kts 237°
2026-05-09 12:33 -4.39044 15.43709 1032 ft 64 kts 237°
2026-05-09 12:33 -4.39283 15.43339 1029 ft 63 kts 237°
2026-05-09 12:33 -4.39516 15.42980 1020 ft 57 kts 237°
2026-05-09 12:33 -4.39677 15.42808 1015 ft 16 kts 250°
2026-05-09 12:34 -4.39612 15.42808 1014 ft 16 kts 56°
2026-05-09 12:34 -4.39545 15.42929 1017 ft 23 kts 60°
2026-05-09 12:34 -4.39454 15.43076 1023 ft 27 kts 58°
2026-05-09 12:34 -4.39342 15.43250 1026 ft 32 kts 57°
2026-05-09 12:35 -4.39215 15.43445 1030 ft 36 kts 57°
2026-05-09 12:35 -4.39070 15.43667 1033 ft 40 kts 57°
2026-05-09 12:35 -4.38913 15.43910 1034 ft 40 kts 57°
2026-05-09 12:35 -4.38838 15.44070 1033 ft 21 kts 102°
2026-05-09 12:36 -4.38931 15.44153 1033 ft 17 kts 143°
2026-05-09 12:36 -4.38919 15.44253 1036 ft 15 kts 57°
2026-05-09 12:36 -4.38879 15.44314 1037 ft 9 kts 65°
2026-05-09 12:36 -4.38894 15.44349 1037 ft 9 kts 132°
2026-05-09 12:37 -4.38920 15.44369 1037 ft 2 kts 145°
2026-05-09 12:37 -4.38923 15.44371 1037 ft 0 kts 146°